User: anonymous   Login
Location: Myra
(43.4160°N, 88.0960°W)
Time: 16:43:20
(UTC-05:00)
Language:

SL-8 R/B - Orbit

View from above orbital plane
View from above orbital plane
View from above satellite
View from above satellite

Ground track
Ground track

The orbit data is extracted from the following two-line orbital elements,

1 33066U 08031G   15114.49952344  .00000570  00000-0  12873-3 0  9998
2 33066 048.4433 179.9546 0007278 037.0136 050.4556 14.69196190367367
Epoch (UTC): 24 April 2015 11:59:18
Eccentricity: 0.0007278
inclination: 48.4433°
perigee height: 658 km
apogee height: 669 km
right ascension of ascending node: 179.9546°
argument of perigee: 37.0136°
revolutions per day: 14.69196190
mean anomaly at epoch: 50.4556°
orbit number at epoch: 36736

The dashed part of the orbit path shows where the satellite is in the earth's shadow,  

DLR